Flag for Equatorial Guinea Weather past 2 weeks in Ebebiyín, Equatorial Guinea

Now
72 °F

Passing clouds.


Feels Like: 67 °F
Forecast: 71 / 83 °F
Wind: 2 mph from North

Location: Yaounde Airport

Current Time: Apr 21, 2015 at 6:47:39 AM

Latest Report: Apr 21, 2015 at 6:00 AM


Visibility: N/A

Pressure: 30.01 "Hg

Humidity: 94%

Dew point: 70 °F

Location of EbebiyínLocation

Historic Weather in Ebebiyín — Graph

°F

Ebebiyín temperature yesterday

Maximum temperature yesterday: 90 °F (at 3:00 PM)
Minimum temperature yesterday: 68 °F (at 6:00 AM)
Average temperature yesterday: 77 °F

Past Weeks' High & Low Weather Summary

 TemperatureHumidityPressure
High90 °F (Apr 6, 3:00 PM)100% (Apr 6, 7:00 AM)30.12 "Hg (Apr 6, 7:00 AM)
Low66 °F (Apr 10, 6:00 AM)36% (Apr 16, 3:00 PM)29.86 "Hg (Apr 6, 5:00 PM)
Average76 °F80%30.00 "Hg
* Reported Apr 6 6:00 AM — Apr 21 6:00 AM, Ebebiyín, Weather by CustomWeather, © 2015

Note: Actual official high and low records may vary slightly from our data, if they occured in-between our weather recording intervals... More about our weather records

Advertising

Ebebiyín weather history for previous 24 hours

 ConditionsComfort  
Time TempWeatherWind HumidityBarometerVisibility
6:00 AM
Tue, Apr 21
72 °FPassing clouds.2 mph94%30.01 "HgN/A
5:00 AM72 °FPassing clouds.3 mph94%29.98 "HgN/A
2:00 AM72 °FPassing clouds.2 mph94%29.98 "HgN/A
1:00 AM73 °FPassing clouds.3 mph89%29.95 "HgN/A
12:00 AM72 °FThunderstorms. Passing clouds.3 mph94%29.98 "HgN/A
11:00 PM
Mon, Apr 20
72 °FThunderstorms. Passing clouds.3 mph94%30.01 "HgN/A
10:00 PM72 °FThunderstorms. Passing clouds.No wind94%30.01 "HgN/A
9:00 PM73 °FThunderstorms. Passing clouds.2 mph89%29.98 "HgN/A
6:00 PM79 °FThunderstorms. Scattered clouds.6 mph74%29.92 "HgN/A
5:00 PM84 °FThunderstorms. Scattered clouds.2 mph58%29.92 "HgN/A
4:00 PM88 °FScattered clouds.3 mph55%29.92 "HgN/A
3:00 PM90 °FPartly sunny.6 mph49%29.92 "HgN/A
2:00 PM88 °FPartly sunny.6 mph55%29.95 "HgN/A
1:00 PM86 °FPartly sunny.6 mph55%29.98 "HgN/A
12:00 PM86 °FPartly sunny.6 mph59%30.01 "HgN/A
11:00 AM84 °FPartly sunny.2 mph62%30.01 "HgN/A
10:00 AM81 °FPartly sunny.3 mph74%30.04 "HgN/A
9:00 AM77 °FScattered clouds.No wind100%30.04 "HgN/A
8:00 AM73 °FScattered clouds.3 mph89%30.04 "HgN/A
7:00 AM70 °FThunderstorms. Scattered clouds.5 mph94%30.01 "HgN/A
6:00 AM68 °FThunderstorms. Passing clouds.7 mph94%30.01 "Hg5 mi
Weather by CustomWeather, © 2015

See weather overviewHow to use our weather pages